User: anonymous   Login
Location: Unspecified
(0.0000°N, 0.0000°E)
Time: 15:41:16
(UTC+00:00)
Language:

A-11 Canister half - Orbit

View from above orbital plane
View from above orbital plane
View from above satellite
View from above satellite

Ground track
Ground track

The orbit data is extracted from the following two-line orbital elements,

1    51U 60009C   16267.90658643 +.00000046 +00000-0 +12816-2 0  9994
2    51 047.2107 242.7733 0104061 070.4943 290.7052 12.18263172497981
Epoch (UTC): 23 September 2016 21:45:29
Eccentricity: 0.0104061
inclination: 47.2107°
perigee height: 1517 km
apogee height: 1683 km
right ascension of ascending node: 242.7733°
argument of perigee: 70.4943°
revolutions per day: 12.18263172
mean anomaly at epoch: 290.7052°
orbit number at epoch: 49798

The dashed part of the orbit path shows where the satellite is in the earth's shadow,  

DLR